Lexington Weather

Lexington, Massachusetts, USA

34°F
4/16/2021 10:51am 
  • Lexington Conditions: Snow, Fog, Overcast
  • Temperature: 34.0°F / 1.1°CWarmer 0.2°F than last hour.
  • Dew Point: 32.7°FIncreased 0.2°Fsince last hour.
  • Relative Humidity: 95
  • Wind: Wind from N N 2 mph, 10-min avg: 1 mph, gust: 4 mph
  • Barometer: 29.47 inFalling 0.03  inHg/hr Falling Slowly
  • Visibility: ½ mile
  • Snow Today: 1.3 in
  •   

Regional Weather Roundup
for Boston / Norton, MA

        
000
ASUS41 KBOX 101404
RWRBOX

REGIONAL WEATHER ROUNDUP
NATIONAL WEATHER SERVICE BOSTON/NORTON MA
1000 AM EDT SAT APR 10 2021

NOTE:  "FAIR" INDICATES FEW OR NO CLOUDS BELOW 12,000 FEET WITH NO 
SIGNIFICANT WEATHER AND/OR OBSTRUCTIONS TO VISIBILITY.

MAZALL-101500-
EASTERN MASSACHUSETTS
  
CITY           SKY/WX    TMP DP  RH WIND       PRES   REMARKS
BOSTON         PTSUNNY   58  45  62 SW8       30.00F                  
BEVERLY        PTSUNNY   61  46  57 W8        29.98F                  
LAWRENCE       PTSUNNY   58  45  62 W7        30.01S                  
BEDFORD        PTSUNNY   62  47  57 SW5       29.99F                  
BLUE HILL        N/A     56  45  66 SW8       29.99S                  
NORWOOD        MOSUNNY   59  45  59 SW7       30.00F                  
MARSHFIELD     CLOUDY    59  46  63 SW6G13    30.00S                  
PLYMOUTH       CLOUDY    54  45  71 SW9       30.01F                  
TAUNTON        PTSUNNY   57  46  66 W5        30.02S                  
NEW BEDFORD    PTSUNNY   54  45  71 S3        30.02S                  
$$

MAZALL-101500-
CAPE COD AND THE ISLANDS
  
CITY           SKY/WX    TMP DP  RH WIND       PRES   REMARKS
FALMOUTH       MOSUNNY   48  48 100 SW7       30.04R                  
HYANNIS        PTSUNNY   50  46  86 SW10      30.02S                  
CHATHAM        CLOUDY    46  44  93 SW10      30.04S                  
PROVINCETOWN   PTSUNNY   48  47  96 S10       30.03S                  
NANTUCKET      MOSUNNY   48  45  89 SW13      30.05S                  
MARTHAS VNYRD  MOSUNNY   48  48 100 S7        30.04F                  
$$
 
MAZALL-101500-
CENTRAL AND WESTERN MASSACHUSETTS
  
CITY           SKY/WX    TMP DP  RH WIND       PRES   REMARKS
WORCESTER      MOSUNNY   62  48  60 W17       30.00S                  
FITCHBURG      MOSUNNY   66  49  54 W9        29.99F                  
ORANGE         MOSUNNY   58  49  72 VRB3      30.01F                  
SPRINGFIELD    MOSUNNY   59  45  60 S3        30.00F                  
WESTFIELD      MOSUNNY   60  47  61 S7        30.00F                  
NORTH ADAMS    PTSUNNY   60  47  61 SE3       30.00F                  
PITTSFIELD     SUNNY     59  48  67 SW6       29.99F                  
$$
 
RIZALL-101500-
RHODE ISLAND
  
CITY           SKY/WX    TMP DP  RH WIND       PRES   REMARKS
PROVIDENCE     PTSUNNY   56  48  74 SE5       30.03S                  
NEWPORT        CLOUDY    50  47  89 S7        30.03S                  
BLOCK ISLAND   LGT RAIN  49  46  90 W15       30.05F                  
SMITHFIELD     MOSUNNY   59  52  77 VRB6      30.02S                  
WESTERLY       CLOUDY    50  46  86 W9        30.04F                  
$$
 
CTZALL-101500-
CONNECTICUT
  
CITY           SKY/WX    TMP DP  RH WIND       PRES   REMARKS
BRADLEY INTL   PTSUNNY   59  46  62 S6        30.02S                  
HARTFORD       MOSUNNY   57  46  66 SE6       30.02F                  
BRIDGEPORT     CLOUDY    51  46  83 S6        30.07R                  
DANBURY        CLOUDY    56  48  74 SW6       30.06S                  
GROTON         PTSUNNY   54  48  80 W10       30.04F                  
NEW HAVEN      CLOUDY    51  48  89 S9        30.06R                  
CHESTER        FAIR      57  48  72 SW3       30.04S                  
MERIDEN        PTSUNNY   57  47  69 S6        30.04S                  
WILLIMANTIC    CLOUDY    56  45  66 CALM      30.04R                  
OXFORD         CLOUDY    53  51  93 W8        30.05S                  
$$

MEZ002-015-021-024-NHZ003-005-008-011-012-014-VTZ005-008-101500-
NORTHERN NEW ENGLAND
  
CITY           SKY/WX    TMP DP  RH WIND       PRES   REMARKS
PORTLAND ME    MOSUNNY   60  46  59 W3        29.97S                  
BANGOR ME      PTSUNNY   56  44  64 NW3       29.96S                  
CONCORD NH     PTSUNNY   56  44  64 CALM      29.99F                  
MANCHESTER NH  PTSUNNY   59  45  59 CALM      29.98S                  
NASHUA NH      CLOUDY    58  49  72 NW3       29.99F                  
PORTSMOUTH NH  PTSUNNY   61  45  55 W5        29.98F                  
JAFFREY NH     MOSUNNY   59  48  67 SW7       30.00F                  
KEENE NH       SUNNY     59  48  67 SE6       30.00F                  
BURLINGTON VT  MOSUNNY   63  47  55 S8        29.97F                  
MT. WASHINGTON PTSUNNY   43  34  70 W10         N/A                   
$$

NYZ052-076-101500-
EASTERN NEW YORK
  
CITY           SKY/WX    TMP DP  RH WIND       PRES   REMARKS
ALBANY         CLOUDY    55  46  71 S5        30.01S                  
NEW YORK CITY  PTSUNNY   56  49  77 NE6       30.04F                  
$$
 
ANZALL-101500-
MARINE OBSERVATIONS
  
STATION/POSITION TIME  TEMP    WIND        PRES    VSBY  WAVE
                       AIR SEA DIR/SP/G                  HT/PER
                 (UTC) (F)     (DEG/KT/KT) (MB)    (MI)  (FT/S)
BOSTON BUOY      1350   47 45  200/  4/  6 1016.1F         4/11
BUZZARDS BAY     1300          230/ 10/ 11 1018.5R
NANTUCKET SOUND  1350      46                N/A           1
MASS BAY-STELLWA 1304   45     210/ 10/ 12 1014.9R  1 7/8  4/11
ISLE OF SHOALS   1300   47     210/  9/ 10 1014.8F
S OF BLOCK IS    1326      46                N/A           3/10
$$

......................KEY.........................
  SKY/WX - SKY CONDITION/PRESENT WEATHER
  TMP    - TEMPERATURE IN FAHRENHEIT
  DWPT   - DEWPOINT IN FAHRENHEIT
  RH     - RELATIVE HUMIDITY IN PERCENT
  WIND   - DIRECTION AND SPEED IN MPH
  PRES   - MEAN SEA LEVEL PRESSURE IN INCHES OF HG
  WCI    - WIND CHILL INDEX
  VSB    - VISIBILITY IN MILES
  HX     - HEAT INDEX
  TC     - TEMPERATURE IN CELSIUS
  VRB    - VARIABLE WIND DIRECTION
  N/A    - NOT AVAILABLE
  
      

Other recent Regional Weather Roundups

Fri Apr 16, 10:05am

Fri Apr 16, 9:04am

Fri Apr 16, 8:04am

Fri Apr 16, 7:04am

Fri Apr 16, 6:04am

Fri Apr 16, 5:04am

Fri Apr 16, 4:04am

Fri Apr 16, 3:04am

Fri Apr 16, 2:04am

Fri Apr 16, 1:04am

Fri Apr 16, 12:04am

Thu Apr 15, 11:05pm

Thu Apr 15, 10:04pm

Thu Apr 15, 9:04pm

Thu Apr 15, 8:04pm

Thu Apr 15, 7:05pm

Thu Apr 15, 6:04pm

Thu Apr 15, 5:05pm

Thu Apr 15, 4:04pm

Thu Apr 15, 3:05pm

Thu Apr 15, 2:04pm

Thu Apr 15, 1:05pm

Thu Apr 15, 12:04pm

Thu Apr 15, 11:04am

Thu Apr 15, 10:05am

Thu Apr 15, 9:04am

Thu Apr 15, 8:04am

Thu Apr 15, 7:04am

Thu Apr 15, 6:04am

Thu Apr 15, 5:04am

Thu Apr 15, 4:04am

Thu Apr 15, 3:04am

Thu Apr 15, 2:04am

Thu Apr 15, 1:04am

Thu Apr 15, 12:04am

Wed Apr 14, 11:04pm

Wed Apr 14, 10:04pm

Wed Apr 14, 9:04pm

Wed Apr 14, 8:04pm

Wed Apr 14, 7:04pm

Wed Apr 14, 6:04pm

Wed Apr 14, 5:05pm

Wed Apr 14, 4:04pm

Wed Apr 14, 3:05pm

Wed Apr 14, 2:04pm

Wed Apr 14, 1:05pm

Wed Apr 14, 12:04pm

Wed Apr 14, 11:04am

Wed Apr 14, 10:04am

Wed Apr 14, 9:04am

Wed Apr 14, 8:04am

Wed Apr 14, 7:04am

Wed Apr 14, 6:04am

Wed Apr 14, 5:04am

Wed Apr 14, 4:04am

Wed Apr 14, 3:04am

Wed Apr 14, 2:04am

Wed Apr 14, 1:04am

Wed Apr 14, 12:04am

Tue Apr 13, 11:04pm

Tue Apr 13, 10:05pm

Tue Apr 13, 9:05pm

Tue Apr 13, 8:05pm

Tue Apr 13, 7:04pm

Tue Apr 13, 6:04pm

Tue Apr 13, 5:05pm

Tue Apr 13, 4:04pm

Tue Apr 13, 3:04pm

Tue Apr 13, 2:05pm

Tue Apr 13, 1:04pm

Tue Apr 13, 12:05pm

Tue Apr 13, 11:05am

Tue Apr 13, 10:04am

Tue Apr 13, 9:04am

Tue Apr 13, 8:04am

Tue Apr 13, 7:04am

Tue Apr 13, 6:04am

Tue Apr 13, 5:04am

Tue Apr 13, 4:04am

Tue Apr 13, 3:04am

Tue Apr 13, 2:04am

Tue Apr 13, 1:04am

Tue Apr 13, 12:05am

Mon Apr 12, 11:04pm

Mon Apr 12, 10:04pm

Mon Apr 12, 9:04pm

Mon Apr 12, 8:04pm

Mon Apr 12, 7:05pm

Mon Apr 12, 6:04pm

Mon Apr 12, 5:04pm

Mon Apr 12, 4:04pm

Mon Apr 12, 3:05pm

Mon Apr 12, 2:04pm

Mon Apr 12, 1:05pm

Mon Apr 12, 12:04pm

Mon Apr 12, 11:04am

Mon Apr 12, 10:04am

Mon Apr 12, 9:04am

Mon Apr 12, 8:04am

Mon Apr 12, 7:04am

Mon Apr 12, 6:04am

Mon Apr 12, 5:04am

Mon Apr 12, 4:04am

Mon Apr 12, 3:04am

Mon Apr 12, 2:04am

Mon Apr 12, 1:05am

Mon Apr 12, 12:04am

Sun Apr 11, 11:04pm

Sun Apr 11, 10:04pm

Sun Apr 11, 9:04pm

Sun Apr 11, 8:04pm

Sun Apr 11, 7:04pm

Sun Apr 11, 6:05pm

Sun Apr 11, 5:05pm

Sun Apr 11, 4:04pm

Sun Apr 11, 3:05pm

Sun Apr 11, 2:05pm

Sun Apr 11, 1:05pm

Sun Apr 11, 12:04pm

Sun Apr 11, 11:05am

Sun Apr 11, 10:05am

Sun Apr 11, 9:04am

Sun Apr 11, 8:04am

Sun Apr 11, 7:04am

Sun Apr 11, 6:04am

Sun Apr 11, 5:04am

Sun Apr 11, 4:04am

Sun Apr 11, 3:04am

Sun Apr 11, 2:04am

Sun Apr 11, 1:05am

Sun Apr 11, 12:04am

Sat Apr 10, 11:05pm

Sat Apr 10, 10:04pm

Sat Apr 10, 9:04pm

Sat Apr 10, 8:04pm

Sat Apr 10, 7:05pm

Sat Apr 10, 6:04pm

Sat Apr 10, 5:04pm

Sat Apr 10, 4:04pm

Sat Apr 10, 3:04pm

Sat Apr 10, 2:05pm

Sat Apr 10, 1:04pm

Sat Apr 10, 12:04pm

Sat Apr 10, 11:04am

Sat Apr 10, 9:04am

Sat Apr 10, 8:04am

Sat Apr 10, 7:04am

Sat Apr 10, 6:04am

Sat Apr 10, 5:04am

Sat Apr 10, 4:04am

Sat Apr 10, 3:04am

Sat Apr 10, 2:04am

Sat Apr 10, 1:05am

Sat Apr 10, 12:04am

Fri Apr 9, 11:04pm

Fri Apr 9, 10:05pm

Fri Apr 9, 9:04pm

Fri Apr 9, 8:05pm

Fri Apr 9, 7:05pm

Fri Apr 9, 6:04pm

Fri Apr 9, 5:04pm

Fri Apr 9, 4:05pm

Fri Apr 9, 3:05pm

Fri Apr 9, 2:04pm

Fri Apr 9, 1:04pm

Fri Apr 9, 12:04pm

Fri Apr 9, 11:05am

Meta data:

ID: 454834ad-9e9b-4c9a-bedb-83dc18957e28
Link: https://api.weather.gov/products/454834ad-9e9b-4c9a-bedb-83dc18957e28